カタログに戻る

CRRES

運用中科学HEO
NORAD 20712·PAYLOAD·🇺🇸 United States

打ち上げ Jul 25, 1990 から Cape Canaveral Space Force Station

Loading…

次のパス (今後24時間)

TLE

最新Source: Space-Track

元期: Sep 14, 2026, 03:06 UTC

1 20712U 90065A   26257.12981386  .00000347  00000-0  48727-3 0  9997
2 20712  17.8825 262.3382 7074968 357.3108   0.3048  2.50161615311938

AllMySatでCRRESをリアルタイム追跡

Download on the App Store